Location: Clanezzo
(45.7500°N, 9.6000°E)
Time: 04:18:00
(UTC+00:00)

ARIANE 5 R/B - Pass Details

Date: 12 May 2021
Orbit: 620 x 656 km, 98.1° (Epoch: 13 June)

Event Time Altitude Azimuth Distance (km) Brightness Sun altitude
Exits shadow 19:37:55 11° 114° (ESE) 1,939 4.5 -8.9°
Maximum altitude 19:41:06 22° 64° (ENE) 1,356 4.1 -9.3°
Drops below altitude 10° 19:44:27 10° 14° (NNE) 1,999 5.5 -9.8°
Sets 19:47:01 0° 359° (N) 2,912 6.7 -10.1°
